08-01-2023, 00:00:03,    203,    0.6,    5.1,   0.00,   0.00,  994.2,   81.1, -999.0
08-01-2023, 00:00:14,    199,    0.1,    5.1,   0.00,   0.00,  994.2,   81.1, -999.0
08-01-2023, 00:00:22,    181,    1.1,    5.1,   0.00,   0.00,  994.3,   81.3, -999.0
08-01-2023, 00:00:33,    224,    1.2,    5.1,   0.00,   0.00,  994.3,   81.3, -999.0
08-01-2023, 00:00:43,    182,    1.6,    5.0,   0.00,   0.00,  994.3,   81.2, -999.0
08-01-2023, 00:00:52,    206,    2.1,    5.1,   0.00,   0.00,  994.3,   81.2, -999.0
08-01-2023, 00:01:02,    212,    1.4,    5.1,   0.00,   0.00,  994.3,   81.3, -999.0
08-01-2023, 00:01:13,    200,    0.8,    5.1,   0.00,   0.00,  994.3,   81.3, -999.0
08-01-2023, 00:01:22,    230,    1.9,    5.1,   0.00,   0.00,  994.3,   81.3, -999.0
08-01-2023, 00:01:32,    200,    3.5,    5.1,   0.00,   0.00,  994.3,   81.3, -999.0
08-01-2023, 00:01:42,    196,    1.9,    5.1,   0.00,   0.00,  994.3,   81.3, -999.0
08-01-2023, 00:01:53,    189,    1.3,    5.1,   0.00,   0.00,  994.3,   81.4, -999.0
08-01-2023, 00:02:02,    189,    1.2,    5.1,   0.00,   0.00,  994.3,   81.2, -999.0
08-01-2023, 00:02:12,    188,    0.5,    5.1,   0.00,   0.00,  994.2,   81.1, -999.0
08-01-2023, 00:02:23,    181,    1.2,    5.1,   0.00,   0.00,  994.3,   81.3, -999.0
08-01-2023, 00:02:32,    155,    2.9,    5.1,   0.00,   0.00,  994.3,   81.3, -999.0
08-01-2023, 00:02:42,    201,    2.2,    5.1,   0.00,   0.00,  994.3,   81.4, -999.0
08-01-2023, 00:02:52,    228,    2.9,    5.1,   0.00,   0.00,  994.3,   81.4, -999.0
08-01-2023, 00:03:02,    178,    0.6,    5.2,   0.00,   0.00,  994.3,   81.4, -999.0
08-01-2023, 00:03:12,    191,    1.6,    5.1,   0.00,   0.00,  994.3,   81.3, -999.0
08-01-2023, 00:03:22,    179,    0.8,    5.1,   0.00,   0.00,  994.3,   81.3, -999.0
08-01-2023, 00:03:32,    187,    1.1,    5.2,   0.00,   0.00,  994.3,   81.3, -999.0
08-01-2023, 00:03:42,    235,    2.8,    5.2,   0.00,   0.00,  994.4,   81.3, -999.0
08-01-2023, 00:03:52,    196,    2.5,    5.2,   0.00,   0.00,  994.3,   81.3, -999.0
08-01-2023, 00:04:02,    208,    1.3,    5.2,   0.00,   0.00,  994.3,   81.2, -999.0
08-01-2023, 00:04:12,    198,    1.0,    5.2,   0.00,   0.00,  994.3,   81.2, -999.0
08-01-2023, 00:04:22,    191,    3.1,    5.2,   0.00,   0.00,  994.3,   81.2, -999.0
08-01-2023, 00:04:32,    213,    1.6,    5.2,   0.00,   0.00,  994.3,   81.3, -999.0
08-01-2023, 00:04:42,    180,    0.9,    5.2,   0.00,   0.00,  994.3,   81.2, -999.0
08-01-2023, 00:04:52,    179,    1.8,    5.2,   0.00,   0.00,  994.3,   81.2, -999.0
08-01-2023, 00:05:02,    235,    1.7,    5.2,   0.00,   0.00,  994.3,   81.1, -999.0
08-01-2023, 00:05:12,    153,    2.0,    5.2,   0.00,   0.00,  994.3,   81.1, -999.0
08-01-2023, 00:05:22,    154,    0.4,    5.2,   0.00,   0.00,  994.3,   80.9, -999.0
08-01-2023, 00:05:32,    153,    0.0,    5.1,   0.00,   0.00,  994.2,   80.7, -999.0
08-01-2023, 00:05:42,    153,    0.0,    5.1,   0.00,   0.00,  994.2,   80.6, -999.0
08-01-2023, 00:05:52,    185,    0.0,    5.1,   0.00,   0.00,  994.2,   80.6, -999.0
08-01-2023, 00:06:02,    185,    0.0,    5.1,   0.00,   0.00,  994.1,   80.6, -999.0
08-01-2023, 00:06:12,    228,    0.8,    5.1,   0.00,   0.00,  994.2,   80.7, -999.0
08-01-2023, 00:06:22,    220,    2.4,    5.2,   0.00,   0.00,  994.3,   81.0, -999.0
08-01-2023, 00:06:32,    177,    1.2,    5.3,   0.00,   0.00,  994.3,   81.0, -999.0
08-01-2023, 00:06:42,    177,    0.4,    5.0,   0.00,   0.00,  994.2,   80.8, -999.0
08-01-2023, 00:06:52,    188,    0.1,    5.2,   0.00,   0.00,  994.2,   80.8, -999.0
08-01-2023, 00:07:02,    187,    0.4,    5.2,   0.00,   0.00,  994.3,   80.9, -999.0
08-01-2023, 00:07:12,    263,    1.5,    5.1,   0.00,   0.00,  994.3,   80.9, -999.0
08-01-2023, 00:07:22,    176,    2.3,    5.2,   0.00,   0.00,  994.3,   81.0, -999.0
08-01-2023, 00:07:33,    176,    1.9,    5.2,   0.00,   0.00,  994.3,   81.0, -999.0
08-01-2023, 00:07:42,    198,    3.5,    5.2,   0.00,   0.00,  994.3,   81.0, -999.0
08-01-2023, 00:07:52,    213,    2.1,    5.2,   0.00,   0.00,  994.3,   81.0, -999.0
08-01-2023, 00:08:01,    161,    1.7,    5.3,   0.00,   0.00,  994.3,   81.0, -999.0
08-01-2023, 00:08:12,    186,    1.8,    5.2,   0.00,   0.00,  994.3,   81.0, -999.0
08-01-2023, 00:08:22,    154,    1.7,    5.3,   0.00,   0.00,  994.3,   80.9, -999.0
08-01-2023, 00:08:32,    187,    1.8,    5.3,   0.00,   0.00,  994.3,   80.8, -999.0
08-01-2023, 00:08:41,    209,    1.6,    5.3,   0.00,   0.00,  994.3,   80.7, -999.0
08-01-2023, 00:08:52,    176,    0.7,    5.1,   0.00,   0.00,  994.2,   80.5, -999.0
08-01-2023, 00:09:02,    176,    0.3,    5.2,   0.00,   0.00,  994.3,   80.6, -999.0
08-01-2023, 00:09:11,    195,    0.0,    5.2,   0.00,   0.00,  994.2,   80.4, -999.0
08-01-2023, 00:09:22,    194,    0.0,    5.2,   0.00,   0.00,  994.2,   80.4, -999.0
08-01-2023, 00:09:32,    193,    0.1,    5.2,   0.00,   0.00,  994.3,   80.5, -999.0
08-01-2023, 00:09:41,    193,    0.0,    5.1,   0.00,   0.00,  994.2,   80.4, -999.0
08-01-2023, 00:09:51,    192,    0.4,    5.2,   0.00,   0.00,  994.2,   80.7, -999.0
08-01-2023, 00:10:02,    214,    1.0,    5.2,   0.00,   0.00,  994.2,   80.8, -999.0
08-01-2023, 00:10:12,    194,    1.6,    5.2,   0.00,   0.00,  994.3,   80.8, -999.0
08-01-2023, 00:10:21,    170,    1.0,    5.2,   0.00,   0.00,  994.3,   80.8, -999.0
08-01-2023, 00:10:31,    137,    2.2,    5.3,   0.00,   0.00,  994.2,   80.9, -999.0
08-01-2023, 00:10:42,    137,    1.0,    5.2,   0.00,   0.00,  994.2,   80.9, -999.0
08-01-2023, 00:10:51,    137,    0.4,    5.2,   0.00,   0.00,  994.2,   80.7, -999.0
08-01-2023, 00:11:01,    202,    0.0,    5.0,   0.00,   0.00,  994.2,   80.6, -999.0
08-01-2023, 00:11:11,    185,    0.8,    5.2,   0.00,   0.00,  994.2,   80.8, -999.0
08-01-2023, 00:11:21,    185,    0.5,    5.1,   0.00,   0.00,  994.2,   80.7, -999.0
08-01-2023, 00:11:31,    165,    1.7,    5.2,   0.00,   0.00,  994.2,   80.7, -999.0
08-01-2023, 00:11:41,    170,    1.7,    5.3,   0.00,   0.00,  994.2,   80.7, -999.0
08-01-2023, 00:11:51,    190,    2.3,    5.3,   0.00,   0.00,  994.3,   80.8, -999.0
08-01-2023, 00:12:01,    221,    3.8,    5.2,   0.00,   0.00,  994.3,   80.9, -999.0
08-01-2023, 00:12:11,    181,    2.5,    5.3,   0.00,   0.00,  994.2,   80.9, -999.0
08-01-2023, 00:12:21,    160,    2.0,    5.3,   0.00,   0.00,  994.2,   80.9, -999.0
08-01-2023, 00:12:31,    205,    3.7,    5.3,   0.00,   0.00,  994.2,   80.8, -999.0
08-01-2023, 00:12:41,    162,    3.4,    5.3,   0.00,   0.00,  994.2,   80.7, -999.0
08-01-2023, 00:12:51,    185,    2.3,    5.3,   0.00,   0.00,  994.2,   80.7, -999.0
08-01-2023, 00:13:01,    184,    0.1,    5.3,   0.00,   0.00,  994.1,   80.2, -999.0
08-01-2023, 00:13:11,    186,    0.7,    5.3,   0.00,   0.00,  994.3,   80.4, -999.0
08-01-2023, 00:13:21,    168,    1.9,    5.3,   0.00,   0.00,  994.2,   80.5, -999.0
08-01-2023, 00:13:31,    167,    2.3,    5.3,   0.00,   0.00,  994.2,   80.4, -999.0
08-01-2023, 00:13:41,    181,    2.5,    5.4,   0.00,   0.00,  994.2,   80.4, -999.0
08-01-2023, 00:13:51,    205,    0.8,    5.4,   0.00,   0.00,  994.2,   80.4, -999.0
08-01-2023, 00:14:01,    198,    2.1,    5.4,   0.00,   0.00,  994.2,   80.4, -999.0
08-01-2023, 00:14:11,    220,    3.1,    5.4,   0.00,   0.00,  994.2,   80.4, -999.0
08-01-2023, 00:14:21,    233,    1.7,    5.4,   0.00,   0.00,  994.2,   80.3, -999.0
08-01-2023, 00:14:31,    149,    1.8,    5.4,   0.00,   0.00,  994.2,   80.3, -999.0
08-01-2023, 00:14:41,    172,    1.5,    5.4,   0.00,   0.00,  994.2,   80.2, -999.0
08-01-2023, 00:14:51,    171,    0.4,    5.3,   0.00,   0.00,  994.1,   80.0, -999.0
08-01-2023, 00:15:01,    168,    0.0,    5.2,   0.00,   0.00,  994.1,   79.9, -999.0
08-01-2023, 00:15:11,    180,    0.6,    5.3,   0.00,   0.00,  994.1,   79.9, -999.0
08-01-2023, 00:15:21,    178,    0.4,    5.4,   0.00,   0.00,  994.2,   80.0, -999.0
08-01-2023, 00:15:31,    168,    1.2,    5.3,   0.00,   0.00,  994.2,   80.0, -999.0
08-01-2023, 00:15:41,    179,    2.9,    5.4,   0.00,   0.00,  994.2,   80.1, -999.0
08-01-2023, 00:15:51,    174,    2.4,    5.4,   0.00,   0.00,  994.1,   80.2, -999.0
08-01-2023, 00:16:01,    173,    1.3,    5.4,   0.00,   0.00,  994.2,   80.3, -999.0
08-01-2023, 00:16:11,    197,    2.3,    5.4,   0.00,   0.00,  994.2,   80.2, -999.0
08-01-2023, 00:16:21,    176,    1.2,    5.3,   0.00,   0.00,  994.2,   80.1, -999.0
08-01-2023, 00:16:32,    180,    2.6,    5.4,   0.00,   0.00,  994.1,   80.1, -999.0
08-01-2023, 00:16:41,    197,    2.6,    5.4,   0.00,   0.00,  994.2,   80.1, -999.0
08-01-2023, 00:16:51,    169,    5.1,    5.4,   0.00,   0.00,  994.2,   80.1, -999.0
08-01-2023, 00:17:01,    214,    2.4,    5.4,   0.00,   0.00,  994.1,   80.0, -999.0
08-01-2023, 00:17:11,    213,    0.4,    5.4,   0.00,   0.00,  994.1,   79.9, -999.0
08-01-2023, 00:17:21,    222,    3.1,    5.4,   0.00,   0.00,  994.2,   79.8, -999.0
08-01-2023, 00:17:30,    150,    3.5,    5.4,   0.00,   0.00,  994.2,   79.9, -999.0
08-01-2023, 00:17:41,    160,    2.2,    5.5,   0.00,   0.00,  994.2,   79.8, -999.0
08-01-2023, 00:17:51,    186,    0.9,    5.5,   0.00,   0.00,  994.2,   79.7, -999.0
08-01-2023, 00:18:00,    198,    1.6,    5.5,   0.00,   0.00,  994.2,   79.7, -999.0
08-01-2023, 00:18:10,    147,    0.8,    5.4,   0.00,   0.00,  994.1,   79.5, -999.0
08-01-2023, 00:18:21,    192,    1.5,    5.5,   0.00,   0.00,  994.2,   79.6, -999.0
08-01-2023, 00:18:31,    203,    1.5,    5.5,   0.00,   0.00,  994.2,   79.4, -999.0
08-01-2023, 00:18:40,    186,    2.6,    5.5,   0.00,   0.00,  994.2,   79.6, -999.0
08-01-2023, 00:18:50,    137,    2.8,    5.5,   0.00,   0.00,  994.1,   79.5, -999.0
08-01-2023, 00:19:01,    192,    2.1,    5.5,   0.00,   0.00,  994.2,   79.5, -999.0
08-01-2023, 00:19:10,    184,    0.9,    5.5,   0.00,   0.00,  994.2,   79.4, -999.0
08-01-2023, 00:19:20,    240,    1.5,    5.5,   0.00,   0.00,  994.1,   79.4, -999.0
08-01-2023, 00:19:31,    195,    2.2,    5.4,   0.00,   0.00,  994.1,   79.3, -999.0
08-01-2023, 00:19:40,    179,    1.6,    5.5,   0.00,   0.00,  994.2,   79.5, -999.0
08-01-2023, 00:19:50,    163,    2.6,    5.5,   0.00,   0.00,  994.2,   79.4, -999.0
08-01-2023, 00:20:00,    166,    2.9,    5.5,   0.00,   0.00,  994.2,   79.3, -999.0
08-01-2023, 00:20:11,    181,    2.3,    5.5,   0.00,   0.00,  994.2,   79.4, -999.0
08-01-2023, 00:20:20,    199,    0.8,    5.5,   0.00,   0.00,  994.1,   79.3, -999.0
08-01-2023, 00:20:30,    182,    0.9,    5.5,   0.00,   0.00,  994.2,   79.1, -999.0
08-01-2023, 00:20:40,    181,    4.4,    5.5,   0.00,   0.00,  994.2,   79.2, -999.0
08-01-2023, 00:20:50,    239,    3.2,    5.5,   0.00,   0.00,  994.2,   79.3, -999.0
08-01-2023, 00:21:00,    146,    2.1,    5.6,   0.00,   0.00,  994.2,   79.2, -999.0
08-01-2023, 00:21:10,    146,    0.0,    5.5,   0.00,   0.00,  994.0,   78.8, -999.0
08-01-2023, 00:21:20,    203,    1.6,    5.5,   0.00,   0.00,  994.1,   79.0, -999.0
08-01-2023, 00:21:30,    187,    1.3,    5.5,   0.00,   0.00,  994.2,   79.1, -999.0
08-01-2023, 00:21:40,    177,    2.6,    5.5,   0.00,   0.00,  994.1,   79.1, -999.0
08-01-2023, 00:21:50,    176,    0.3,    5.5,   0.00,   0.00,  994.1,   79.0, -999.0
08-01-2023, 00:22:00,    176,    0.0,    5.4,   0.00,   0.00,  994.1,   78.8, -999.0
08-01-2023, 00:22:10,    176,    0.0,    5.3,   0.00,   0.00,  994.1,   78.8, -999.0
08-01-2023, 00:22:20,    176,    0.0,    5.4,   0.00,   0.00,  994.1,   78.8, -999.0
08-01-2023, 00:22:30,    185,    1.4,    5.4,   0.00,   0.00,  994.2,   79.2, -999.0
08-01-2023, 00:22:40,    161,    2.0,    5.4,   0.00,   0.00,  994.2,   79.2, -999.0
08-01-2023, 00:22:50,    175,    2.8,    5.5,   0.00,   0.00,  994.2,   79.3, -999.0
08-01-2023, 00:23:00,    176,    0.4,    5.5,   0.00,   0.00,  994.2,   79.4, -999.0
08-01-2023, 00:23:10,    175,    0.1,    5.4,   0.00,   0.00,  994.1,   79.2, -999.0
08-01-2023, 00:23:20,    175,    0.3,    5.5,   0.00,   0.00,  994.1,   79.2, -999.0
08-01-2023, 00:23:30,    175,    0.0,    5.4,   0.00,   0.00,  994.1,   79.0, -999.0
08-01-2023, 00:23:40,    175,    0.1,    5.4,   0.00,   0.00,  994.1,   79.0, -999.0
08-01-2023, 00:23:51,    173,    0.8,    5.4,   0.00,   0.00,  994.1,   79.2, -999.0
08-01-2023, 00:24:00,    218,    2.2,    5.4,   0.00,   0.00,  994.2,   79.4, -999.0
08-01-2023, 00:24:10,    236,    1.8,    5.5,   0.00,   0.00,  994.2,   79.3, -999.0
08-01-2023, 00:24:20,    185,    2.1,    5.4,   0.00,   0.00,  994.2,   79.3, -999.0
08-01-2023, 00:24:30,    181,    1.4,    5.5,   0.00,   0.00,  994.2,   79.4, -999.0
08-01-2023, 00:24:40,    213,    0.9,    5.5,   0.00,   0.00,  994.2,   79.4, -999.0
08-01-2023, 00:24:50,    202,    0.2,    5.4,   0.00,   0.00,  994.1,   79.2, -999.0
08-01-2023, 00:25:00,    171,    1.6,    5.4,   0.00,   0.00,  994.2,   79.4, -999.0
08-01-2023, 00:25:09,    180,    2.8,    5.5,   0.00,   0.00,  994.2,   79.3, -999.0
08-01-2023, 00:25:20,    178,    1.8,    5.5,   0.00,   0.00,  994.2,   79.4, -999.0
08-01-2023, 00:25:30,    185,    2.3,    5.5,   0.00,   0.00,  994.2,   79.4, -999.0
08-01-2023, 00:25:40,    190,    0.9,    5.6,   0.00,   0.00,  994.2,   79.3, -999.0
08-01-2023, 00:25:50,    208,    0.7,    5.4,   0.00,   0.00,  994.2,   79.2, -999.0
08-01-2023, 00:26:00,    185,    1.3,    5.5,   0.00,   0.00,  994.2,   79.3, -999.0
08-01-2023, 00:26:10,    185,    0.3,    5.5,   0.00,   0.00,  994.2,   79.1, -999.0
08-01-2023, 00:26:19,    186,    0.0,    5.4,   0.00,   0.00,  994.1,   78.9, -999.0
08-01-2023, 00:26:30,    160,    1.3,    5.4,   0.00,   0.00,  994.3,   79.3, -999.0
08-01-2023, 00:26:40,    162,    3.1,    5.5,   0.00,   0.00,  994.2,   79.2, -999.0
08-01-2023, 00:26:49,    162,    0.9,    5.5,   0.00,   0.00,  994.2,   79.0, -999.0
08-01-2023, 00:26:59,    162,    0.2,    5.4,   0.00,   0.00,  994.2,   79.0, -999.0
08-01-2023, 00:27:10,    200,    0.8,    5.4,   0.00,   0.00,  994.2,   79.0, -999.0
08-01-2023, 00:27:20,    180,    0.9,    5.5,   0.00,   0.00,  994.3,   79.2, -999.0
08-01-2023, 00:27:30,    176,    1.8,    5.5,   0.00,   0.00,  994.3,   79.3, -999.0
08-01-2023, 00:27:39,    174,    3.0,    5.5,   0.00,   0.00,  994.2,   79.2, -999.0
08-01-2023, 00:27:50,    135,    1.0,    5.5,   0.00,   0.00,  994.3,   79.3, -999.0
08-01-2023, 00:27:59,    180,    2.0,    5.4,   0.00,   0.00,  994.2,   79.1, -999.0
08-01-2023, 00:28:09,    192,    1.4,    5.5,   0.00,   0.00,  994.3,   79.3, -999.0
08-01-2023, 00:28:20,    192,    1.7,    5.5,   0.00,   0.00,  994.2,   79.4, -999.0
08-01-2023, 00:28:29,    192,    0.8,    5.5,   0.00,   0.00,  994.2,   79.2, -999.0
08-01-2023, 00:28:39,    184,    0.4,    5.4,   0.00,   0.00,  994.2,   79.3, -999.0
08-01-2023, 00:28:49,    182,    0.4,    5.3,   0.00,   0.00,  994.2,   79.3, -999.0
08-01-2023, 00:28:59,    193,    2.3,    5.5,   0.00,   0.00,  994.3,   79.3, -999.0
08-01-2023, 00:29:09,    191,    0.0,    5.4,   0.00,   0.00,  994.2,   79.1, -999.0
08-01-2023, 00:29:19,    190,    0.0,    5.4,   0.00,   0.00,  994.2,   79.1, -999.0
08-01-2023, 00:29:29,    190,    0.0,    5.3,   0.00,   0.00,  994.2,   78.9, -999.0
08-01-2023, 00:29:39,    190,    0.1,    5.4,   0.00,   0.00,  994.2,   79.1, -999.0
08-01-2023, 00:29:49,    191,    0.2,    5.3,   0.00,   0.00,  994.2,   79.1, -999.0
08-01-2023, 00:29:59,    223,    0.9,    5.4,   0.00,   0.00,  994.2,   79.2, -999.0
08-01-2023, 00:30:09,    204,    2.2,    5.4,   0.00,   0.00,  994.3,   79.5, -999.0
08-01-2023, 00:30:19,    198,    1.0,    5.4,   0.00,   0.00,  994.3,   79.5, -999.0
08-01-2023, 00:30:29,    177,    1.4,    5.4,   0.00,   0.00,  994.3,   79.6, -999.0
08-01-2023, 00:30:39,    179,    1.0,    5.3,   0.00,   0.00,  994.3,   79.7, -999.0
08-01-2023, 00:30:49,    178,    0.0,    5.3,   0.00,   0.00,  994.2,   79.3, -999.0
08-01-2023, 00:30:59,    192,    0.7,    5.4,   0.00,   0.00,  994.3,   79.5, -999.0
08-01-2023, 00:31:09,    225,    1.8,    5.4,   0.00,   0.00,  994.3,   79.7, -999.0
08-01-2023, 00:31:19,    224,    0.3,    5.4,   0.00,   0.00,  994.2,   79.5, -999.0
08-01-2023, 00:31:29,    202,    0.8,    5.4,   0.00,   0.00,  994.3,   79.6, -999.0
08-01-2023, 00:31:39,    163,    2.5,    5.4,   0.00,   0.00,  994.3,   79.7, -999.0
08-01-2023, 00:31:49,    183,    1.1,    5.3,   0.00,   0.00,  994.3,   79.8, -999.0
08-01-2023, 00:31:59,    191,    1.9,    5.4,   0.00,   0.00,  994.3,   79.7, -999.0
08-01-2023, 00:32:09,    203,    1.7,    5.4,   0.00,   0.00,  994.3,   79.8, -999.0
08-01-2023, 00:32:19,    191,    1.6,    5.4,   0.00,   0.00,  994.3,   79.8, -999.0
08-01-2023, 00:32:29,    178,    0.5,    5.4,   0.00,   0.00,  994.3,   79.8, -999.0
08-01-2023, 00:32:39,    184,    0.9,    5.4,   0.00,   0.00,  994.2,   79.8, -999.0
08-01-2023, 00:32:49,    183,    1.4,    5.4,   0.00,   0.00,  994.2,   79.8, -999.0
08-01-2023, 00:32:59,    166,    1.2,    5.4,   0.00,   0.00,  994.2,   79.9, -999.0
08-01-2023, 00:33:09,    166,    1.9,    5.4,   0.00,   0.00,  994.2,   79.8, -999.0
08-01-2023, 00:33:19,    195,    1.1,    5.4,   0.00,   0.00,  994.2,   79.8, -999.0
08-01-2023, 00:33:29,    194,    0.1,    5.3,   0.00,   0.00,  994.2,   79.5, -999.0
08-01-2023, 00:33:39,    194,    0.1,    5.3,   0.00,   0.00,  994.2,   79.6, -999.0
08-01-2023, 00:33:49,    194,    0.0,    5.3,   0.00,   0.00,  994.1,   79.5, -999.0
08-01-2023, 00:33:58,    187,    0.5,    5.3,   0.00,   0.00,  994.2,   79.7, -999.0
08-01-2023, 00:34:09,    187,    1.7,    5.4,   0.00,   0.00,  994.2,   79.8, -999.0
08-01-2023, 00:34:19,    187,    0.0,    5.3,   0.00,   0.00,  994.1,   79.7, -999.0
08-01-2023, 00:34:29,    187,    0.0,    5.3,   0.00,   0.00,  994.1,   79.5, -999.0
08-01-2023, 00:34:38,    187,    0.0,    5.3,   0.00,   0.00,  994.1,   79.7, -999.0
08-01-2023, 00:34:49,    176,    1.6,    5.4,   0.00,   0.00,  994.1,   80.0, -999.0
08-01-2023, 00:34:59,    175,    2.1,    5.4,   0.00,   0.00,  994.2,   80.1, -999.0
08-01-2023, 00:35:08,    174,    1.0,    5.3,   0.00,   0.00,  994.1,   80.0, -999.0
08-01-2023, 00:35:19,    174,    0.7,    5.4,   0.00,   0.00,  994.2,   80.0, -999.0
08-01-2023, 00:35:29,    219,    0.9,    5.4,   0.00,   0.00,  994.2,   80.1, -999.0
08-01-2023, 00:35:38,    218,    0.7,    5.4,   0.00,   0.00,  994.1,   80.0, -999.0
08-01-2023, 00:35:48,    216,    0.3,    5.4,   0.00,   0.00,  994.2,   80.0, -999.0
08-01-2023, 00:35:59,    206,    0.2,    5.3,   0.00,   0.00,  994.1,   80.0, -999.0
08-01-2023, 00:36:09,    190,    1.0,    5.3,   0.00,   0.00,  994.2,   80.2, -999.0
08-01-2023, 00:36:18,    189,    1.1,    5.4,   0.00,   0.00,  994.1,   80.2, -999.0
08-01-2023, 00:36:28,    190,    0.7,    5.4,   0.00,   0.00,  994.1,   80.0, -999.0
08-01-2023, 00:36:39,    188,    0.4,    5.3,   0.00,   0.00,  994.1,   80.1, -999.0
08-01-2023, 00:36:48,    187,    0.9,    5.3,   0.00,   0.00,  994.1,   80.2, -999.0
08-01-2023, 00:36:58,    161,    2.3,    5.3,   0.00,   0.00,  994.1,   80.2, -999.0
08-01-2023, 00:37:08,    179,    2.6,    5.4,   0.00,   0.00,  994.1,   80.3, -999.0
08-01-2023, 00:37:18,    189,    0.9,    5.3,   0.00,   0.00,  994.1,   80.3, -999.0
08-01-2023, 00:37:28,    216,    0.5,    5.3,   0.00,   0.00,  994.2,   80.3, -999.0
08-01-2023, 00:37:38,    165,    1.8,    5.3,   0.00,   0.00,  994.2,   80.4, -999.0
08-01-2023, 00:37:48,    211,    0.8,    5.4,   0.00,   0.00,  994.2,   80.4, -999.0
08-01-2023, 00:37:58,    211,    0.1,    5.3,   0.00,   0.00,  994.1,   80.2, -999.0
08-01-2023, 00:38:08,    211,    0.2,    5.2,   0.00,   0.00,  994.1,   80.1, -999.0
08-01-2023, 00:38:18,    198,    1.3,    5.3,   0.00,   0.00,  994.2,   80.5, -999.0
08-01-2023, 00:38:28,    199,    0.3,    5.3,   0.00,   0.00,  994.2,   80.5, -999.0
08-01-2023, 00:38:38,    198,    0.4,    5.3,   0.00,   0.00,  994.1,   80.5, -999.0
08-01-2023, 00:38:48,    194,    0.5,    5.3,   0.00,   0.00,  994.1,   80.5, -999.0
08-01-2023, 00:38:58,    195,    0.2,    5.3,   0.00,   0.00,  994.1,   80.6, -999.0
08-01-2023, 00:39:09,    195,    0.0,    5.2,   0.00,   0.00,  994.0,   80.4, -999.0
08-01-2023, 00:39:18,    194,    0.0,    5.1,   0.00,   0.00,  994.1,   80.5, -999.0
08-01-2023, 00:39:28,    194,    0.0,    5.1,   0.00,   0.00,  994.0,   80.4, -999.0
08-01-2023, 00:39:38,    188,    0.1,    5.2,   0.00,   0.00,  994.1,   80.6, -999.0
08-01-2023, 00:39:48,    234,    1.3,    5.3,   0.00,   0.00,  994.2,   80.8, -999.0
08-01-2023, 00:39:58,    176,    0.6,    5.2,   0.00,   0.00,  994.2,   80.8, -999.0
08-01-2023, 00:40:08,    203,    0.8,    5.2,   0.00,   0.00,  994.1,   80.8, -999.0
08-01-2023, 00:40:18,    191,    0.4,    5.2,   0.00,   0.00,  994.1,   80.6, -999.0
08-01-2023, 00:40:28,    179,    0.8,    5.3,   0.00,   0.00,  994.1,   80.8, -999.0
08-01-2023, 00:40:38,    179,    0.1,    5.2,   0.00,   0.00,  994.1,   80.6, -999.0
08-01-2023, 00:40:48,    187,    0.3,    5.1,   0.00,   0.00,  994.1,   80.6, -999.0
08-01-2023, 00:40:58,    224,    0.7,    5.3,   0.00,   0.00,  994.1,   80.8, -999.0
08-01-2023, 00:41:08,    153,    0.9,    5.2,   0.00,   0.00,  994.1,   80.7, -999.0
08-01-2023, 00:41:18,    170,    1.9,    5.2,   0.00,   0.00,  994.2,   80.9, -999.0
08-01-2023, 00:41:28,    206,    1.2,    5.2,   0.00,   0.00,  994.2,   80.8, -999.0
08-01-2023, 00:41:38,    170,    3.4,    5.2,   0.00,   0.00,  994.2,   81.0, -999.0
08-01-2023, 00:41:48,    170,    1.8,    5.3,   0.00,   0.00,  994.2,   81.0, -999.0
08-01-2023, 00:41:58,    173,    2.0,    5.3,   0.00,   0.00,  994.2,   81.1, -999.0
08-01-2023, 00:42:08,    173,    0.8,    5.3,   0.00,   0.00,  994.1,   81.0, -999.0
08-01-2023, 00:42:18,    173,    0.2,    5.2,   0.00,   0.00,  994.1,   80.7, -999.0
08-01-2023, 00:42:28,    173,    0.3,    5.3,   0.00,   0.00,  994.1,   80.8, -999.0
08-01-2023, 00:42:38,    173,    0.3,    5.2,   0.00,   0.00,  994.1,   80.7, -999.0
08-01-2023, 00:42:48,    173,    0.1,    5.3,   0.00,   0.00,  994.1,   80.8, -999.0
08-01-2023, 00:42:58,    172,    0.6,    5.2,   0.00,   0.00,  994.1,   80.7, -999.0
08-01-2023, 00:43:08,    173,    0.6,    5.2,   0.00,   0.00,  994.1,   80.9, -999.0
08-01-2023, 00:43:18,    173,    0.8,    5.2,   0.00,   0.00,  994.1,   81.0, -999.0
08-01-2023, 00:43:27,    172,    0.4,    5.2,   0.00,   0.00,  994.1,   81.0, -999.0
08-01-2023, 00:43:38,    173,    0.1,    5.1,   0.00,   0.00,  994.1,   81.0, -999.0
08-01-2023, 00:43:48,    166,    0.7,    5.2,   0.00,   0.00,  994.1,   81.2, -999.0
08-01-2023, 00:43:57,    176,    1.7,    5.3,   0.00,   0.00,  994.2,   81.3, -999.0
08-01-2023, 00:44:07,    176,    0.6,    5.2,   0.00,   0.00,  994.1,   81.3, -999.0
08-01-2023, 00:44:18,    176,    0.0,    5.2,   0.00,   0.00,  994.0,   81.1, -999.0
08-01-2023, 00:44:28,    209,    0.8,    5.2,   0.00,   0.00,  994.1,   81.4, -999.0
08-01-2023, 00:44:37,    218,    0.7,    5.2,   0.00,   0.00,  994.1,   81.3, -999.0
08-01-2023, 00:44:48,    182,    0.3,    5.2,   0.00,   0.00,  994.1,   81.2, -999.0
08-01-2023, 00:44:58,    183,    0.9,    5.1,   0.00,   0.00,  994.1,   81.3, -999.0
08-01-2023, 00:45:07,    182,    0.7,    5.2,   0.00,   0.00,  994.1,   81.4, -999.0
08-01-2023, 00:45:17,    236,    0.9,    5.3,   0.00,   0.00,  994.1,   81.4, -999.0
08-01-2023, 00:45:28,    158,    2.8,    5.2,   0.00,   0.00,  994.2,   81.4, -999.0
08-01-2023, 00:45:37,    188,    2.6,    5.3,   0.00,   0.00,  994.1,   81.5, -999.0
08-01-2023, 00:45:47,    186,    2.3,    5.3,   0.00,   0.00,  994.2,   81.5, -999.0
08-01-2023, 00:45:57,    214,    1.6,    5.3,   0.00,   0.00,  994.1,   81.5, -999.0
08-01-2023, 00:46:08,    182,    2.2,    5.3,   0.00,   0.00,  994.1,   81.4, -999.0
08-01-2023, 00:46:17,    181,    2.0,    5.2,   0.00,   0.00,  994.1,   81.4, -999.0
08-01-2023, 00:46:27,    189,    1.3,    5.2,   0.00,   0.00,  994.2,   81.4, -999.0
08-01-2023, 00:46:37,    175,    0.9,    5.3,   0.00,   0.00,  994.1,   81.3, -999.0
08-01-2023, 00:46:47,    172,    2.2,    5.3,   0.00,   0.00,  994.1,   81.3, -999.0